Temp
20 21 21 21 21 20 20 18 18 20 19 18 18 18 18 17 17 18 18 18 17 17 17 18 17 17 17 17 17 17 18 17 17 18 17 17 16 15 16 17 17 17 16
22 21 21 21 20 20 20 18 18 19 18 18 18 18 18 18 18 18 18 18 18 17 17 17 17 17 16 16 17 17 17 17 17 17 16 16 17 16 16 17 17 17 17
22 21 20 21 20 20 19 18 18 19 18 18 17 17 18 18 18 18 18 17 17 17 17 16 17 17 17 16 16 16 16 16 17 17 16 17 17 17 16 17 17 16 16
22 20 20 20 20 20 19 18 18 18 18 18 18 18 18 18 18 18 18 18 17 17 17 16 16 16 16 16 16 16 16 16 16 17 16 16 16 17 16 17 17 16 16
21 21 20 20 20 20 19 19 18 18 17 17 17 18 18 18 19 19 19 19 18 17 17 17 16 16 15 16 16 16 16 16 16 16 16 16 16 17 17 17 17 17 17
22 21 20 20 20 19 19 19 18 18 17 17 17 18 18 18 18 18 18 19 19 18 17 17 16 16 16 16 16 16 16 16 16 16 16 16 16 16 16 17 17 17 16
21 21 20 20 20 19 19 19 18 18 17 17 17 17 18 18 18 19 19 18 18 17 17 16 16 16 16 16 16 16 17 16 16 16 16 16 16 16 16 16 17 17 17
22 21 20 20 20 20 20 19 18 18 18 18 17 17 17 18 19 19 18 18 17 17 17 16 16 16 16 16 16 16 16 17 16 16 16 16 16 16 16 16 17 17 17
22 21 20 20 19 20 20 19 19 19 18 18 18 17 17 18 18 18 18 17 17 17 17 17 17 17 16 16 16 17 17 17 17 17 17 17 17 17 16 16 16 17 17
21 21 21 20 20 19 19 19 19 19 19 18 18 17 17 17 18 18 17 17 18 17 17 17 17 17 17 17 17 17 17 18 18 17 17 18 17 17 17 17 17 17 17
20 21 20 20 20 19 19 19 19 19 18 18 18 17 17 17 18 18 18 18 18 17 17 17 17 18 18 18 17 17 17 18 18 17 18 18 17 17 16 17 17 17 17
20 20 20 20 20 19 19 19 19 18 18 18 18 18 17 18 18 18 18 18 18 17 17 17 17 17 17 18 17 17 17 17 17 17 17 17 16 16 16 17 17 17 17
21 20 20 20 20 20 19 19 18 18 18 18 18 18 18 18 18 18 18 18 18 17 17 17 17 17 17 17 17 17 17 17 17 16 16 16 17 16 16 16 17 17 17
21 22 21 21 20 20 20 19 19 18 18 18 18 18 17 18 17 17 17 18 18 17 17 17 17 17 17 17 17 17 16 16 16 16 16 16 16 16 16 16 16 17 17
22 22 22 21 21 20 19 19 19 19 18 18 18 18 18 18 17 17 18 17 17 17 17 17 17 17 17 16 16 16 15 15 15 15 15 15 15 15 14 15 15 15 15
25 23 22 21 21 20 19 19 19 19 18 18 18 18 17 17 17 17 17 18 17 17 16 16 16 16 15 15 15 15 14 14 14 14 14 14 14 14 14 13 14 14 14
25 24 22 21 21 20 19 18 19 19 18 18 17 17 17 17 17 18 17 17 16 15 15 15 15 15 15 14 14 14 14 13 13 14 13 13 13 13 13 12 12 12 13
23 23 21 21 20 19 19 18 18 18 18 18 17 17 17 17 17 17 17 16 15 15 15 15 14 13 13 13 13 13 13 12 13 13 12 12 12 12 12 12 11 11 11
21 21 20 20 19 19 18 17 18 17 18 17 17 17 17 17 16 17 16 15 15 15 14 13 13 12 11 12 12 13 12 11 12 12 12 11 11 11 10 10 10 10 9
20 20 19 19 18 18 17 17 16 16 16 16 16 16 16 16 16 16 15 14 14 13 13 12 12 11 10 10 11 12 12 11 11 11 11 10 10 10 9 9 9 9 8
19 19 18 18 17 17 16 16 15 15 14 15 15 16 16 16 15 15 14 13 13 12 11 10 10 10 10 9 9 10 12 11 10 10 10 9 9 9 9 8 8 8 7
18 18 17 17 16 16 17 17 16 14 14 15 14 15 15 15 14 14 13 12 12 11 10 9 9 9 8 8 7 5 4 7 9 12 9 9 8 8 9 8 7 7 7
16 16 15 15 16 17 17 16 15 14 14 13 14 14 13 13 13 13 12 12 11 10 9 8 8 7 7 7 7 6 4 3 4 8 8 7 7 6 6 6 6 6 6
15 15 15 16 16 16 17 16 16 13 13 13 13 13 12 12 12 12 11 10 10 9 8 8 7 7 6 5 6 6 6 5 3 2 6 5 5 5 5 5 5 5 5
15 15 15 16 16 16 16 16 15 14 14 13 12 12 12 11 11 11 10 9 9 8 8 7 7 6 6 5 4 4 4 4 5 1 2 3 3 3 3 4 4 5 5
15 15 16 16 15 16 16 16 16 15 13 12 11 11 11 11 10 10 9 9 8 8 7 7 6 6 5 5 4 4 3 3 2 1 1 2 2 2 3 3 3 4 4
Height
762 764 767 770 772 774 775 777 779 779 780 781 781 782 783 784 785 787 787 788 789 789 788 788 787 787 786 787 788 788 788 789 789 789 788 786 786 786 787 789 789 789 790
758 763 766 769 771 774 776 777 779 779 780 781 782 783 783 785 786 787 788 788 789 789 789 788 788 788 788 788 788 789 789 789 789 788 787 786 786 786 786 788 788 788 789
758 762 766 768 771 774 776 777 779 780 780 781 782 784 785 786 787 788 789 789 788 788 788 789 788 788 788 788 788 789 789 789 788 788 787 786 786 787 786 787 788 788 789
758 762 765 768 771 774 776 778 779 781 781 782 783 784 786 787 788 789 789 789 789 788 788 788 788 788 788 788 788 789 789 789 787 787 787 787 787 786 786 787 787 787 788
759 762 765 768 771 773 775 777 779 782 782 782 783 784 785 786 787 788 788 788 788 789 787 788 788 789 788 789 788 788 788 788 787 787 786 786 786 786 786 786 786 786 786
759 761 765 767 771 773 775 776 779 781 782 782 783 784 785 786 786 787 787 787 788 788 787 787 788 788 789 788 788 787 787 787 786 786 785 785 784 784 785 785 785 785 785
759 762 765 768 770 773 775 776 779 780 781 782 782 783 784 786 785 785 786 787 788 788 787 787 787 788 788 787 787 787 786 786 785 784 784 783 783 782 782 783 783 783 783
758 762 764 767 770 772 774 777 778 779 781 782 782 783 783 785 785 785 786 787 788 787 787 786 786 786 786 786 785 784 784 784 783 782 782 781 781 780 780 780 780 780 780
759 761 764 766 769 771 773 775 778 778 780 781 782 783 783 784 785 784 785 786 788 787 786 785 785 785 786 785 784 783 783 782 781 780 780 779 778 777 777 777 777 776 776
760 761 763 765 768 770 772 774 775 779 780 780 782 782 783 784 784 784 785 786 788 787 786 786 785 785 785 785 784 783 782 781 780 779 778 777 776 775 774 774 773 772 772
759 760 761 763 766 769 771 773 775 776 779 780 781 782 782 784 783 783 785 786 786 787 786 786 786 784 785 784 783 782 781 780 778 777 776 775 773 772 771 770 769 769 768
757 758 759 761 763 766 769 773 774 776 778 779 780 782 783 784 783 783 784 785 786 787 786 786 785 784 784 782 782 780 779 778 776 775 773 772 771 770 768 767 766 764 763
753 756 757 759 761 764 767 770 774 775 777 778 780 782 783 784 784 784 784 784 786 786 786 785 784 783 782 781 780 779 777 776 774 772 771 770 769 767 766 764 763 761 760
751 752 754 757 759 762 765 769 772 774 776 777 780 782 782 783 784 784 783 784 784 785 785 784 783 782 782 780 779 777 776 774 772 770 769 767 766 764 763 762 761 759 756
749 750 751 755 757 760 764 767 770 773 775 777 779 781 782 783 785 783 782 784 783 785 785 784 783 782 780 779 778 777 775 773 771 769 768 766 764 763 762 761 760 757 755
741 742 746 751 754 758 762 767 770 772 774 777 778 780 782 783 784 784 783 783 783 785 784 783 782 781 780 778 777 775 773 771 770 768 766 765 763 762 760 760 759 757 755
735 738 741 746 751 756 760 765 769 771 773 775 777 779 781 781 783 783 783 783 784 785 784 783 781 780 779 777 775 774 772 770 769 767 765 764 763 761 759 758 757 756 754
735 735 738 744 750 755 759 763 767 769 772 774 777 779 781 782 785 783 783 783 786 784 783 782 780 779 778 776 774 772 771 769 768 766 765 763 762 760 759 758 756 754 752
732 733 737 741 748 754 759 761 766 769 772 775 776 779 782 784 785 783 784 785 785 784 783 783 781 780 778 776 773 771 769 768 767 766 764 763 762 760 758 757 755 753 752
732 733 737 741 747 753 756 761 765 769 773 776 777 779 781 784 785 784 784 786 785 785 784 783 782 781 780 777 773 769 767 766 765 765 763 762 761 759 757 755 753 751 750
732 733 736 740 746 749 754 759 765 769 775 777 779 780 781 785 785 785 786 787 786 785 784 784 783 782 780 777 773 768 765 764 763 762 761 760 758 757 755 753 751 749 746
730 732 736 739 744 748 752 757 763 770 775 777 780 781 782 786 786 786 787 787 787 787 786 786 785 783 781 779 777 774 772 765 761 760 759 758 757 755 753 751 749 747 744
728 730 734 739 744 748 752 758 764 771 774 778 780 780 784 786 787 787 788 788 788 788 787 787 785 784 783 782 780 780 779 777 767 758 757 756 754 752 751 749 746 744 741
726 729 734 739 744 749 752 757 761 766 772 777 778 782 785 786 787 788 788 789 789 789 788 787 786 784 783 783 781 781 781 779 775 763 755 753 752 750 747 744 742 740 737
726 729 734 739 744 748 752 756 761 767 772 775 779 782 784 786 788 789 789 789 789 789 788 787 786 784 783 783 782 780 777 774 773 771 756 749 747 745 742 740 737 735 733
725 729 734 738 743 748 752 757 761 766 771 775 779 781 784 786 788 789 789 789 789 789 788 786 785 784 783 782 780 779 777 776 772 770 762 754 747 740 738 735 732 730 728
Wind_Speed
17 21 21 16 16 16 15 14 12 7 6 6 6 9 11 12 11 7 7 6 6 4 2 0 6 8 9 5 5 4 4 4 7 14 14 12 6 4 5 6 9 7 5
17 23 23 20 17 16 14 14 11 8 7 8 7 11 11 9 7 6 6 6 5 3 4 3 3 3 5 4 1 2 3 6 10 12 10 8 4 3 4 5 7 8 4
20 24 22 20 18 15 15 13 11 7 7 9 9 9 8 7 7 6 6 5 2 2 4 4 2 4 3 2 2 2 3 6 8 10 10 4 4 6 6 6 9 7 9
20 23 21 20 20 15 15 12 9 7 9 10 10 9 8 8 6 5 4 3 3 3 5 5 4 3 3 5 5 6 7 8 9 9 9 6 8 7 8 9 9 8 9
21 22 20 20 18 18 16 12 9 8 8 10 9 9 7 8 9 8 4 3 2 3 4 4 3 3 3 4 5 6 7 8 10 11 10 10 10 8 6 8 9 10 10
21 21 20 20 18 17 16 13 11 9 8 8 10 9 8 6 6 10 10 5 4 1 3 3 4 4 5 5 7 8 8 9 9 10 11 11 13 11 10 11 12 11 11
21 21 21 20 19 17 16 13 12 11 8 7 9 9 8 4 2 7 9 6 5 2 2 3 4 5 6 6 7 7 8 9 12 12 12 12 12 12 12 12 13 13 13
20 22 21 19 19 18 18 14 13 11 8 5 7 10 8 7 2 2 7 5 4 3 3 4 6 7 8 8 7 8 9 10 12 13 13 13 13 13 14 14 14 15 15
20 22 22 21 20 21 18 15 12 11 10 7 5 8 9 8 5 2 5 5 4 4 5 7 9 9 8 8 8 8 8 9 11 12 13 14 14 13 12 13 14 15 16
21 23 23 22 22 22 19 17 13 12 11 10 7 5 6 8 7 4 4 3 4 5 7 7 6 6 7 8 9 9 10 11 13 13 14 14 15 15 14 14 14 15 16
22 25 24 23 24 23 20 18 15 15 13 11 8 5 6 7 7 5 2 2 2 4 4 5 6 6 9 12 12 13 14 13 14 14 14 15 15 15 17 17 17 17 18
24 27 26 24 25 23 21 19 17 14 13 12 9 7 5 5 5 3 2 0 2 4 6 7 9 9 9 10 9 8 10 12 13 13 14 14 13 15 16 17 17 18 18
28 27 28 26 25 25 23 20 18 15 13 11 9 10 7 5 4 3 1 2 5 7 8 6 6 6 6 6 7 9 11 11 12 12 11 12 13 13 14 14 16 18 18
25 29 30 28 25 25 23 21 19 15 13 12 11 10 7 5 3 1 1 1 2 3 2 2 3 5 7 9 11 12 12 13 13 13 13 12 11 12 12 12 12 14 15
28 29 32 30 27 25 23 20 18 14 14 11 12 10 7 5 4 4 2 2 4 4 3 4 6 8 11 12 13 14 14 13 13 11 9 10 10 11 14 14 14 16 18
29 31 32 31 30 26 23 20 19 15 14 9 10 10 8 7 6 6 6 3 5 4 5 7 10 12 13 14 15 14 14 14 10 9 11 10 12 13 14 15 16 17 19
26 24 30 30 29 27 23 21 17 16 16 13 13 11 9 6 7 3 4 5 5 6 7 9 11 12 14 15 15 13 15 11 8 11 11 11 13 14 13 17 18 19 18
19 19 25 28 26 27 26 20 17 15 15 14 13 9 7 6 5 3 2 6 7 8 10 12 14 14 15 18 18 15 18 4 7 18 11 15 13 14 14 17 18 19 18
15 19 26 28 28 27 24 21 18 18 17 16 15 13 8 6 8 8 9 9 9 10 11 12 13 14 16 20 18 18 13 1 3 11 12 18 14 17 16 20 20 20 19
11 17 26 27 29 29 26 21 21 19 19 18 17 17 14 12 10 10 11 10 10 10 11 12 12 13 12 21 15 19 7 2 5 8 14 20 15 19 19 23 23 22 22
14 18 27 30 31 32 29 27 25 25 22 21 19 17 16 13 12 11 11 9 10 11 12 13 12 14 13 21 10 16 5 7 10 9 16 22 18 22 21 25 27 25 24
18 20 26 32 35 32 30 28 27 27 22 22 20 18 16 13 11 10 9 10 9 9 10 12 13 12 11 18 10 4 4 7 4 24 14 23 16 29 25 31 27 26 22
20 23 28 33 34 31 30 28 29 25 25 22 20 19 15 11 10 9 9 8 9 9 10 11 13 14 11 13 11 8 3 3 8 5 21 9 27 15 29 29 28 24 20
22 26 29 34 33 30 31 32 33 27 25 22 20 18 14 10 9 7 7 7 8 8 9 10 11 13 12 11 6 12 8 7 3 5 5 25 11 27 25 29 26 21 30
25 28 32 33 31 31 31 33 32 30 23 23 21 18 13 10 7 6 6 6 7 7 8 9 11 12 12 12 11 11 9 13 8 4 10 9 25 24 26 25 21 31 25
26 30 33 33 31 30 30 31 31 31 29 26 21 17 13 9 7 5 5 6 6 6 8 10 11 12 13 13 15 14 12 5 8 6 6 12 15 22 25 32 25 26 26
Wind_Direction
196 174 168 175 176 172 169 158 155 159 155 139 142 142 142 144 142 144 132 112 113 73 51 259 18 38 79 144 147 202 237 291 318 323 320 312 286 269 247 258 255 276 261
173 173 175 179 176 177 175 161 162 161 151 143 133 155 151 138 138 134 130 126 113 62 15 270 340 21 47 62 56 278 291 290 300 319 330 323 293 282 258 250 248 248 250
169 172 179 182 178 179 172 167 167 165 153 153 153 154 146 146 146 138 142 135 127 26 8 359 278 256 268 290 305 301 312 306 302 326 326 301 315 291 261 253 253 265 259
169 171 179 181 178 177 176 173 173 172 157 151 149 155 173 186 166 155 146 194 210 321 6 10 14 350 283 284 290 297 298 301 303 305 320 302 311 301 287 255 258 274 274
172 174 179 179 179 182 182 179 180 178 170 171 169 173 173 188 192 195 184 203 238 287 1 22 28 4 356 334 325 312 305 303 299 301 291 296 301 298 298 267 264 271 273
173 177 178 179 181 187 185 181 180 179 180 180 186 190 196 199 215 215 203 212 259 274 15 22 15 352 325 308 308 306 305 302 298 300 302 297 287 285 286 274 274 270 272
174 177 179 182 184 192 189 186 184 180 175 177 183 188 190 202 252 223 209 213 219 233 340 336 320 319 313 305 299 306 307 303 298 300 301 303 300 295 284 275 276 269 271
177 179 184 189 192 194 195 192 190 182 175 184 177 187 197 217 236 173 195 204 209 247 287 301 299 302 300 300 299 292 290 289 292 300 304 307 309 302 285 279 274 275 265
187 185 189 192 196 198 196 194 196 177 183 200 182 190 208 220 217 175 192 210 248 272 286 306 310 313 314 314 318 320 317 314 307 312 316 317 316 313 291 282 274 271 273
198 196 195 197 199 199 201 198 191 188 197 204 202 205 219 226 211 192 198 218 265 293 312 322 338 346 343 337 333 326 323 325 321 316 319 323 320 313 301 287 283 274 270
202 203 202 203 202 203 205 201 198 198 204 209 210 218 223 208 186 183 183 240 307 328 343 342 346 348 340 335 328 320 316 316 315 315 313 316 318 314 298 291 281 276 277
207 206 207 209 204 204 206 204 202 200 205 206 210 207 178 163 167 175 156 208 319 316 317 323 324 322 323 323 330 340 345 341 333 327 320 321 326 320 317 311 304 297 292
216 214 212 211 207 205 205 205 205 202 204 203 200 192 186 171 159 161 151 1 313 305 308 317 328 340 1 4 354 352 352 356 1 354 345 339 337 330 326 320 319 317 308
223 220 218 213 208 205 205 204 203 202 199 197 193 198 196 187 192 158 35 315 34 355 343 28 15 3 340 344 344 339 345 349 350 351 350 356 358 355 359 3 1 2 357
241 229 222 214 209 202 201 201 197 199 197 198 205 205 200 194 185 150 151 105 84 66 64 16 356 346 335 335 340 341 343 344 348 2 22 24 37 36 28 23 29 24 18
245 235 223 214 210 202 199 204 196 200 191 196 184 179 177 174 170 157 126 101 72 49 28 8 357 350 346 342 340 343 348 350 11 35 31 37 33 29 31 31 22 19 16
230 229 218 208 206 200 195 184 182 181 185 170 163 165 171 176 166 160 106 69 55 30 4 350 353 353 346 347 347 346 349 10 44 29 32 33 24 22 25 17 15 14 13
233 218 204 199 194 188 180 174 176 184 169 168 165 161 154 148 164 184 137 78 41 11 4 3 2 2 359 357 349 345 342 11 53 30 32 19 18 14 13 9 4 5 9
221 203 189 189 181 177 171 170 170 160 166 164 157 158 168 164 130 110 85 67 38 25 21 20 17 11 4 356 347 339 341 133 18 5 18 17 15 9 10 5 360 359 1
188 186 185 177 172 169 166 159 152 151 149 148 146 138 136 128 110 92 80 64 43 31 27 21 15 13 9 357 341 339 337 229 300 354 359 1 357 4 358 356 350 351 350
182 173 178 175 170 167 159 148 143 142 142 136 135 131 127 120 107 91 77 61 44 33 32 25 19 11 10 4 342 340 306 303 272 324 344 351 342 346 341 344 342 340 339
184 179 177 177 170 166 163 158 155 148 141 136 132 125 120 119 105 91 74 58 42 32 29 26 26 20 15 18 2 327 349 329 323 309 309 333 328 331 324 329 332 331 328
180 177 175 172 167 167 162 157 150 146 139 133 132 125 120 117 104 85 68 53 43 35 34 28 26 26 15 20 42 42 349 307 320 258 308 287 320 321 319 324 324 321 316
177 173 175 170 168 169 166 164 161 155 149 148 141 133 128 117 103 86 69 54 45 39 35 30 22 22 20 19 11 359 351 307 312 319 300 309 313 317 317 317 317 310 314
172 170 170 169 169 169 170 169 167 161 158 150 145 141 132 123 107 89 68 53 43 34 29 19 13 10 8 5 4 345 331 322 279 271 304 311 312 313 311 312 310 304 308
168 169 168 168 168 171 173 174 171 164 159 156 155 148 141 131 112 85 62 47 36 19 13 8 3 359 356 351 346 343 340 321 304 292 288 304 298 308 310 301 305 303 304